Simultaneous Nadir Overpasses (SNOs) Predictions

Prediction of SNOs between METOP-C and METOP-A Satellite Orbit:

Table of predicted SNOs for the next 14.0 days since TLE Epoch: 11/27/2021
Index Date (METOP-C) Time (METOP-C) Lat,Lon (METOP-C) SZA (METOP-C ) Date (METOP-A) Time (METOP-A) Lat,Lon (METOP-A) SZA (METOP-A ) Distance(km) Time Diff (sec)
1 11/28/2021 02:42:06 -81.22, 3.32 74.84 11/28/2021 02:42:40 -81.22, 3.38 74.82 1.26 34
2 11/28/2021 03:32:47 81.22, 170.61 105.17 11/28/2021 03:31:42 81.24, 170.76 105.16 2.75 65
3 11/30/2021 13:49:40 -81.22,-163.59 74.46 11/30/2021 13:50:46 -81.23,-163.68 74.44 1.43 66
4 11/30/2021 14:40:20 81.23, 4.12 105.60 11/30/2021 14:39:56 81.23, 3.95 105.57 2.93 24
5 12/03/2021 01:47:56 81.22,-163.15 105.90 12/03/2021 01:48:12 81.24,-163.24 105.90 2.01 16
6 12/03/2021 02:38:35 -81.24, 4.76 74.03 12/03/2021 02:37:26 -81.23, 4.78 74.07 1.41 69
7 12/05/2021 12:55:31 81.22, 29.94 106.19 12/05/2021 12:56:27 81.23, 29.91 106.22 1.14 56
8 12/05/2021 13:46:11 -81.23,-162.56 73.79 12/05/2021 13:45:33 -81.24,-162.37 73.78 3.20 38
9 12/08/2021 00:53:45 -81.24, 30.88 73.50 12/08/2021 00:53:39 -81.23, 30.87 73.51 0.88 6
10 12/08/2021 01:44:26 81.24,-161.70 106.52 12/08/2021 01:43:16 81.24,-161.74 106.48 0.73 70
11 12/10/2021 12:01:20 -81.23,-136.07 73.30 12/10/2021 12:01:46 -81.24,-136.26 73.31 3.15 26



Historial Predications of SNOs between METOP-C and METOP-A
